Location: Puketoi
(40.5833°S, 176.0167°E)
Time: 14:09:42
(UTC+00:00)

ADEOS II - Pass Details

Date: 08 February 2023
Orbit: 799 x 799 km, 98.6° (Epoch: 30 March)

Event Time Altitude Azimuth Distance (km) Brightness Sun altitude
Exits shadow 13:29:59 46° 186° (S) 1,078 3.0 -32.7°
Drops below altitude 10° 13:33:41 10° 191° (SSW) 2,407 5.2 -32.5°
Sets 13:36:03 0° 192° (SSW) 3,344 6.1 -32.4°
